Regional Weather Roundup
Issued by NWS Pendleton, OR

Home | Current Version | Previous Version | Text Only | Print | Product List | Glossary On
Versions: 1 2 3 4 5 6 7 8 9 10 11 12 13 14 15 16 17 18 19 20 21 22 23 24 25 26 27 28 29 30 31 32 33 34 35 36 37 38 39 40 41 42 43 44 45 46 47 48 49 50
000
ASUS46 KPDT 311725
RWRPDT
PENDLETON REGIONAL WEATHER ROUNDUP
NATIONAL WEATHER SERVICE PENDLETON OREGON
1000 AM PDT FRI JUL 31 2015

NOTE: FAIR INDICATES FEW OR NO CLOUDS BELOW 12,000 FEET WITH NO
SIGNIFICANT WEATHER AND/OR OBSTRUCTIONS TO VISIBILITY.

# INDICATES UNOFFICIAL STATION AND DATA

WAZ520-311810-
EAST SLOPES OF WASHINGTON CASCADES

CITY            SKY/WX      TMP DP  RH  WIND    PRES   REMARKS
#BULLFROG 2SW   N/A         83  45  26  N3      27.71F
#BUMPING DAM    N/A         64  N/A N/A SW1     N/A
#CLE ELUM HS    N/A         79  38  23  CALM    30.05F
#CLE ELUM LAKE  N/A         83  37  19  CALM    29.94F
#CLIFFDEL 2NW   N/A         69  38  32  CALM    N/A
#MANASTASH CYN  N/A         81  42  25  N1      30.09F
#NELSON         N/A         77  49  37  CALM    30.01F
#NELSON 3SW     N/A         79  45  30  CALM    30.17F
#RONALD 2NW     N/A         78  39  25  SW1     30.02F
#SNOWDEN        N/A         85  17   8  NW3     N/A
#TEANAWAY 4NE   N/A         76  46  34  CALM    N/A
#TROUT LAKE 1NE N/A         80  49  34  CALM    29.97F
$$

WAZ521-311810-
SIMCOE HIGHLANDS

CITY            SKY/WX      TMP DP  RH  WIND    PRES   REMARKS
#BICKLETON HS   N/A         86  25  11  S2      N/A
#CENTERVILLE 4W N/A         80  49  34  CALM    29.84S
#CENTERVILLE 1SWN/A         78  47  34  CALM    29.94
#GOLDENDALE     N/A         73  41  31  CALM    N/A
#GOLDENDALE 1NE N/A         77  33  20  CALM    N/A
#GOLDENDALE 5WNWN/A         80  46  30  NE2     29.95F
#GOODNOE HILLS  N/A         86  48  27  W6      N/A
#LYLE 6NE       N/A         79  46  31  SE1     29.93F
$$

WAZ026-311810-
KITTITAS VALLEY

CITY            SKY/WX      TMP DP  RH  WIND    PRES   REMARKS
ELLENSBURG AP   SUNNY       80  44  28  SE5     30.09F
YTC-OPS AREA    N/A         86  23  10  W13     30.13S
#ELLENSBURG CWU N/A         75  48  38  CALM    29.94F
#ELLENSBURG 3NE N/A         76  48  37  CALM    30.08F
#ELLENSBURG 1E  N/A         72  52  49  CALM    N/A
#KITTITAS 3S    N/A         73  54  51  CALM    29.99F
#THORP 6N       N/A         81  36  20  N7      29.98F
$$

WAZ027-311810-
YAKIMA VALLEY

CITY            SKY/WX      TMP DP  RH  WIND    PRES   REMARKS
SUNNYSIDE AP    SUNNY       80  49  34  CALM    30.03F
YAKIMA AIRPORT  SUNNY       86  47  26  W5      30.05F
#DONALD 2NE     N/A         92  42  18  S1      28.88F HX 88
#GRANDVIEW      N/A         83  54  37  E1      29.99F
#MABTON         N/A         80  59  49  CALM    30.02F
#MOXEE 2E       N/A         79  18  10  N3      29.93F
#NACHES 2SW     N/A         85  50  30  W1      30.09F
#OUTLOOK DOT    N/A         N/A N/A N/A SW1     N/A
#SELAH 8E       N/A         91  33  13  N6      N/A    HX 87
#TERRACE HTS    N/A         84  50  31  CALM    29.93F
#TOPPENISH      N/A         82  52  35  CALM    29.90F
#WAPATO 4NE     N/A         92  42  18  S1      28.88F HX 88
#WEST VALLEY    N/A         84  47  28  CALM    29.96F
#W YAKIMA       N/A         85  46  26  W1      29.96F
#WHITE SWAN 5E  N/A         85  49  29  NE3     29.98F
#WILEY CITY 3W  N/A         86  38  18  E1      30.03F
$$

WAZ028-311810-
LOWER COLUMBIA BASIN...WASHINGTON

CITY            SKY/WX      TMP DP  RH  WIND    PRES   REMARKS
PASCO           SUNNY       83  46  27  CALM    30.02F
RICHLAND AWOS   SUNNY       84  50  31  CALM    30.02F
#BASIN CITY 5SW N/A         81  58  46  E1      30.02F
#BENTON CITY    N/A         86  48  27  W2      29.89F
#CONNELL 5N     N/A         89  43  20  W1      29.97F
#CONNELL 5NW    N/A         84  49  30  NW1     29.95F
#ELTOPIA 6NW    N/A         80  51  36  CALM    29.00F
#KAHLOTUS       N/A         87  32  14  CALM    29.97F
#KENNEWICK      N/A         83  45  26  N3      27.71F
#KENNEWICK 3S   N/A         82  57  43  CALM    29.98S
#PASCO-BROADMOORN/A         89  52  28  CALM    29.88F
#PATERSON       N/A         78  51  39  CALM    29.98F
#PROSSER        N/A         82  46  28  W2      29.97F
#SAGEMOOR 2W    N/A         84  57  40  CALM    29.84S
#TOUCHET 2S     N/A         82  54  38  CALM    29.97F
#WEST PASCO     N/A         85  56  37  NE1     29.98F
$$

WAZ029-311810-
FOOTHILLS OF THE BLUES...WASHINGTON

CITY            SKY/WX      TMP DP  RH  WIND    PRES   REMARKS
WALLA WALLA AP  SUNNY       90  31  12  VRB3    30.04F HX 86
#DAYTON SCHOOL  N/A         92  34  13  W2      30.05F HX 88
#LOWDEN 2SE     N/A         83  51  33  CALM    29.98F
#PLEASANT VIEW 1N/A         90  33  13  CALM    29.99F HX 86
#PRESCOTT       N/A         92  39  16  CALM    29.96F HX 88
#SUDBURY        N/A         90  N/A N/A CALM    N/A
#WHITMAN COLLEGEN/A         89  39  17  E2      30.01F
#WAITSBURG 8N   N/A         94  32  11  S7      29.85F HX 89
#WALLA WALLA U  N/A         88  44  22  CALM    29.96F
#WHITMAN MISSIONN/A         83  48  30  CALM    29.98F
$$

WAZ030-311810-
BLUE MOUNTAINS...WASHINGTON

CITY            SKY/WX      TMP DP  RH  WIND    PRES   REMARKS
$$

ORZ009-041-WAZ024-311810-
COLUMBIA RIVER GORGE

CITY            SKY/WX      TMP DP  RH  WIND    PRES   REMARKS
HOOD RIVER AP   SUNNY       77  46  33  CALM    30.04F
THE DALLES AP   SUNNY       81  48  32  VRB3    30.01F
#ARLINGTON AIRPON/A         82  50  33  W7      29.78R
#MOSIER 1S      N/A         80  38  22  N3      30.05S
#MURDOCK        N/A         79  53  41  NW5     30.00F

$$

ORZ510-311810-
NORTH CENTRAL OREGON

CITY            SKY/WX      TMP DP  RH  WIND    PRES   REMARKS
#CHENOWITH 1W   N/A         79  44  29  W13     N/A
#DUFUR 9E       N/A         86  39  19  N1      29.98F
#GRASS VALLEY 1SN/A         89  44  21  NW3     29.98S
#MAUPIN SCHOOL  N/A         85  44  24  CALM    30.05F
#MORO SCHOOL    N/A         88  49  26  NW5     30.08F
#SHANIKO 4NW    N/A         85  34  16  VRB6    30.21S
#TYGH VALLEY 2NEN/A         81  51  35  CALM    29.98F
#WAPANITIA AIRPON/A         89  40  18  CALM    29.98F
#WASCO 5NE      N/A         84  47  28  SW6     29.96F
$$

ORZ511-311810-
CENTRAL OREGON

CITY            SKY/WX      TMP DP  RH  WIND    PRES   REMARKS
BEND AIRPORT    SUNNY       84  37  19  CALM    30.19F
MADRAS AIRPORT  SUNNY       81  37  21  CALM    30.16F
PRINEVILLE AP   SUNNY       84  36  18  E5      30.18F
REDMOND AIRPORT SUNNY       81  37  21  CALM    30.17F
#BEND 1SW       N/A         80  43  27  CALM    N/A
#BEND-AWBREY    N/A         82  40  22  CALM    29.94F
#BEND-KIM LN    N/A         79  47  32  CALM    30.18F
#CULVER         N/A         83  42  24  SW1     30.11F
#LAKE BILLY CHINN/A         84   6   5  N3      30.16F
#POWELL BUTTE 3EN/A         74  46  37  W1      N/A
#POWELL BUTTE   N/A         85  52  32  N1      29.81F
#PRINEVILLE 3N  N/A         80  48  33  SW2     29.95F
#WARM SPRINGS   N/A         85  45  25  CALM    30.06F

$$


ORZ509-311810-
EAST SLOPES OF OREGON CASCADES

CITY            SKY/WX      TMP DP  RH  WIND    PRES   REMARKS
#CAMP SHERMAN   N/A         82  43  25  CALM    30.00F
#LA PINE 4NW    N/A         72  46  39  CALM    30.05F
#SISTERS AIRPOR N/A         86  48  27  N5      30.17S
#SISTERS 3N     N/A         84  46  27  NE2     30.34S
#SUNRIVER       N/A         72  50  46  S1      29.89F

$$

ORZ044-311810-
LOWER COLUMBIA BASIN...OREGON

CITY            SKY/WX      TMP DP  RH  WIND    PRES   REMARKS
HERMISTON       SUNNY       83  42  24  W6      30.02F
#BOARDMAN SCHOOLN/A         76  52  43  CALM    30.02F
#BOARDMAN 8SW   N/A         82  54  38  W3      29.98F
#ECHO 8SW       N/A         87  49  27  NW3     30.03S
#IONE SCHOOL    N/A         89  43  20  CALM    30.00F
#IRRIGON 4NW    N/A         79  50  36  E2      N/A
#UMATILLA       N/A         83  49  31  CALM    29.93F
$$

ORZ507-311810-
NORTHERN FOOTHILLS OF THE BLUES

CITY            SKY/WX      TMP DP  RH  WIND    PRES   REMARKS
PENDLETON AIRPT SUNNY       88  37  16  NW8     30.06F
#ADAMS 3WNW     N/A         88  36  16  W2      29.97F
#ATHENA         N/A         87  38  18  W1      30.00F
#CAYUSE         N/A         88  41  19  SW2     29.95F
#HELIX SCHOOL   N/A         86  39  19  SW2     29.97F
#HELIX 3N       N/A         88  35  15  SW5     30.05F
#HELIX 6SW      N/A         87  41  20  W3      30.06F
#HOLDMAN 5SE    N/A         87  41  20  W2      30.06S
#HOLDMAN 6E     N/A         88  42  20  NW2     29.79F
#M-F GROVE ELEM N/A         86  40  20  CALM    30.02F
#M-FREEWATER 5SEN/A         89  53  29  N1      30.03F
#PENDLETON DNTN N/A         85  46  26  CALM    32.20R
#PDT AQUATIC CTRN/A         82  47  29  CALM    30.03S
#PDT SUNRIDGE   N/A         88  41  19  W1      30.06F
#PENDLETON 7NW  N/A         89  54  31  W2      31.36S
#PILOT ROCK     N/A         89  44  21  N1      30.09S
#TUTUILLA       N/A         88  44  22  CALM    30.01F
#UMAPINE 2E     N/A         83  52  34  CALM    29.99F
#WESTON SCHOOL  N/A         87  35  16  NW3     29.95F

$$

ORZ508-311810-
SOUTHERN FOOTHILLS OF THE BLUES

CITY            SKY/WX      TMP DP  RH  WIND    PRES   REMARKS
#AJAX           N/A         87  37  17  S1      30.03
#CONDON SCHOOL  N/A         88  38  17  W2      30.09F
#CONDON 5W      N/A         84  30  14  NW7     30.15S
#FOSSIL SCHOOL  N/A         87  37  17  NW2     30.07F
#HEPPNER EOC    N/A         91  43  19  NW5     29.88F HX 87
#HEPPNER 4NE    N/A         88  41  19  N2      29.94F
#LEXINGTON 2SE  N/A         91  46  21  N5      30.03F HX 87
#OLEX 4N        N/A         86  43  22  W5      30.02F
#RUGGS 5NE      N/A         90  -9   2  W1      30.33S HX 86
#RUGGS 2SW      N/A         90  39  17  N2      29.95F HX 86

$$

ORZ502-503-311810-
BLUE MOUNTAINS

CITY            SKY/WX      TMP DP  RH  WIND    PRES   REMARKS
MEACHAM         SUNNY       84  39  20  CALM    30.21S
#HEPPNER 15SE   N/A         84  38  19  N2      30.15F
#LONG CREEK HS  N/A         78  38  24  CALM    30.17S
#PIKES PEAK     N/A         83  35  18  SW1     27.99S
#TOLLGATE       N/A         82  37  20  S1      30.13S
#TROY SCHOOL    N/A         81  45  28  CALM    29.85F
#UKIAH          N/A         72  43  35  CALM    30.07F
$$

ORZ505-311810-
JOHN DAY BASIN

CITY            SKY/WX      TMP DP  RH  WIND    PRES   REMARKS
JOHN DAY        SUNNY       83  33  17  CALM    30.21F
#JOHN DAY KJDY  N/A         80  46  30  CALM    30.16F
#DAYVILLE SCHOOLN/A         78  36  22  CALM    30.12F
#MITCHELL       N/A         88  49  26  CALM    30.30F
#MONUMENT HS    N/A         81  37  21  CALM    30.13F
#MT. VERNON 5SE N/A         80  35  20  CALM    30.18F
#WINLOCK        N/A         87  34  15  SW3     30.24F
$$

ORZ506-311810-
OCHOCO AND JOHN DAY HIGHLANDS

CITY            SKY/WX      TMP DP  RH  WIND    PRES   REMARKS
#PAULINA SCHOOL N/A         79  39  24  CALM    30.19S
#PINE MTN OBS   N/A         76  32  20  N1      N/A
#PRAIRIE CITY   N/A         81  44  27  CALM    30.00F
#SENECA         N/A         71  N/A N/A CALM    N/A
#SENECA 9NW     N/A         72  41  33  CALM    30.03F
$$

ORZ049-311810-
GRANDE RONDE VALLEY

CITY            SKY/WX      TMP DP  RH  WIND    PRES   REMARKS
LA GRANDE       SUNNY       75  37  25  NE3     30.18F
#COVE           N/A         74  50  43  NE1     30.19S
#COVE SCHOOL    N/A         78  47  34  CALM    30.19F
#COVE 6NW       N/A         72  44  37  CALM    30.08F
#ELGIN 3N       N/A         79  39  24  S5      30.13F
#ELGIN 1E       N/A         76  43  31  CALM    N/A
#IMBLER SCHOOL  N/A         74  43  33  CALM    30.11F
#ISLAND CITY 4N N/A         81  53  38  CALM    30.04F
#UNION 1S       N/A         75  48  38  W1      29.95S
$$

ORZ050-311810-
WALLOWA COUNTY

CITY            SKY/WX      TMP DP  RH  WIND    PRES   REMARKS
JOSEPH AIRPORT  SUNNY       86  34  16  CALM    30.25F
#ENTERPRISE HS  N/A         84  46  27  CALM    30.20F
#IMNAHA SCHOOL  N/A         86  40  20  S2      30.09F
#IMNAHA 10S     N/A         85  39  20  CALM    30.14F
#JOSEPH 3N      N/A         82  37  20  CALM    30.22F
#JOSEPH 3W      N/A         87  29  12  E1      30.10S
#LOSTINE        N/A         74  44  34  CALM    29.83F
#MT HOWARD 8000 N/A         71  28  20  CALM    30.55F
#PROMISE 1S     N/A         83  46  27  CALM    30.07F
#WALLOWA SCHOOL N/A         74  44  34  CALM    30.14F



$$



USA.gov is the U.S. government's official web portal to all federal, state and local government web resources and services.